Content
SEND FEEDBACK

Daily
Averages
Monthly
Summary
United States of America

BOSTON, MASSACHUSETTS


Home > North America > United States > Massachusetts
Elevation: 1 meter     Latitude: 42 22N     Longitude: 071 02W

WEATHER
 
SELECT A DAY
Number of Records: 207,079;   Date Range: 1/1/95 - 12/21/14
 
SHARE

PRINT THIS DATA

[ ← Previous Day ]
WEATHER ALMANAC - 3 JANUARY, 2013
[ Next Day → ]
[ °F ]   °C
Weather ElementAverageHighLow
Temperature-8.3 °C-3.9 °C (2:54 pm)-13.9 °C (5:54 am)
Dewpoint-18.2 °C-12.2 °C (10:54 pm)-21.7 °C (1:54 am)
Humidity46.8 %60 % (10:54 pm)29 % (3:54 pm)
Barometer1018.6 hPa1020.7 hPa (1:54 am)1015.9 hPa (11:54 pm)
Wind Speed16.7 km/h27.8 km/h (1:54 am)
Wind Gust37 km/h (1:54 am)
Weather ElementAverage
Visibility16.1 km
Wind DirectionWNW (281.7 °)

Weather ElementTotal
Precipitation---
Heating Degree Days27.2 (Base 18.3)
Averaged from 23 records on 3 January, 2013
WEATHER CONDITIONS BREAKOUT
WIND DIRECTION BREAKOUT
WEATHER BY HOUR - 3 JANUARY, 2013
[ °F ]   °C
Local TimeTemperatureDewpointHumidityBarometerVisibilityWind DirectionWind SpeedGust SpeedPrecipitationEventsConditions
1:54 AM-12.2 °C-21.7 °C46 %1020.7 hPa16.1 kmNW (320°)27.8 km/h37 km/hClear
2:54 AM-12.8 °C-20 °C56 %1020.3 hPa16.1 kmWNW (290°)25.9 km/hClear
3:54 AM-13.3 °C-21.1 °C53 %1020.3 hPa16.1 kmWNW (300°)25.9 km/hClear
4:54 AM-13.3 °C-21.1 °C53 %1020 hPa16.1 kmNW (310°)16.7 km/hClear
5:54 AM-13.9 °C-21.1 °C55 %1020 hPa16.1 kmWNW (300°)16.7 km/hPartly Cloudy
6:54 AM-13.3 °C-21.1 °C53 %1020 hPa16.1 kmWNW (300°)14.8 km/hScattered Clouds
7:54 AM-13.3 °C-21.1 °C53 %1020.7 hPa16.1 kmWest (280°)16.7 km/hScattered Clouds
8:54 AM-12.2 °C-20.6 °C51 %1020.3 hPa16.1 kmWNW (300°)16.7 km/hScattered Clouds
9:54 AM-10.6 °C-19.4 °C49 %1020.3 hPa16.1 kmWNW (290°)16.7 km/hScattered Clouds
10:54 AM-8.9 °C-18.9 °C45 %1019.3 hPa16.1 kmNW (310°)14.8 km/hScattered Clouds
11:54 AM-7.2 °C-18.3 °C42 %1019 hPa16.1 kmWNW (290°)14.8 km/hScattered Clouds
12:54 PM-6.1 °C-18.9 °C36 %1017.9 hPa16.1 kmWNW (290°)22.2 km/hScattered Clouds
1:54 PM-5 °C-17.8 °C37 %1016.9 hPa16.1 kmWest (270°)16.7 km/hScattered Clouds
2:54 PM-3.9 °C-18.9 °C31 %1017.3 hPa16.1 kmWest (280°)14.8 km/hScattered Clouds
3:54 PM-4.4 °C-20 °C29 %1016.9 hPa16.1 kmWest (260°)14.8 km/hPartly Cloudy
4:54 PM-5 °C-18.9 °C34 %1016.9 hPa16.1 kmWest (280°)11.1 km/hPartly Cloudy
5:54 PM-5 °C-16.7 °C40 %1017.3 hPa16.1 kmWest (270°)14.8 km/hPartly Cloudy
6:54 PM-5 °C-17.2 °C39 %1017.6 hPa16.1 kmWNW (290°)13 km/hPartly Cloudy
7:54 PM-4.4 °C-14.4 °C46 %1017.3 hPa16.1 kmWest (270°)9.3 km/hMostly Cloudy
8:54 PM-4.4 °C-12.8 °C53 %1017.6 hPa16.1 kmWest (280°)20.4 km/h29.6 km/hOvercast
9:54 PM-5.6 °C-12.8 °C58 %1017.6 hPa16.1 kmSW (230°)11.1 km/hMostly Cloudy
10:54 PM-5.6 °C-12.2 °C60 %1016.9 hPa16.1 kmSW (220°)13 km/hScattered Clouds
11:54 PM-5 °C-12.2 °C58 %1015.9 hPa16.1 kmWSW (250°)14.8 km/hScattered Clouds
Hourly data recorded from KBOS, located 0 kilometers away from Boston, Massachusetts







STORIES FROM OUR PARTNERS